Time,TemperatureF,DewpointF,PressureIn,WindDirection,WindDirectionDegrees,WindSpeedMPH,WindSpeedGustMPH,Humidity,HourlyPrecipIn,Conditions,Clouds,dailyrainin,SoftwareType,DateUTC
2013-07-17 00:00:00,77.7,63.7,28.97,SSW,193,5.0,7.2,62,0.00,,,-99.99,FreeWX-Wi 1.01,2013-07-17 05:00:00,
2013-07-17 00:05:00,77.7,63.7,28.97,SSW,193,5.0,6.3,62,0.00,,,-99.99,FreeWX-Wi 1.01,2013-07-17 05:05:00,
2013-07-17 00:10:00,77.7,63.7,28.97,SSW,193,5.0,6.3,62,0.00,,,-99.99,FreeWX-Wi 1.01,2013-07-17 05:10:00,
2013-07-17 00:15:00,77.7,63.7,28.97,SSW,193,5.0,5.8,62,0.00,,,-99.99,FreeWX-Wi 1.01,2013-07-17 05:15:00,
2013-07-17 00:20:00,77.5,63.5,28.97,SSW,193,5.0,5.8,62,0.00,,,-99.99,FreeWX-Wi 1.01,2013-07-17 05:20:00,
2013-07-17 00:25:00,77.5,63.5,28.97,SSW,193,5.0,6.3,62,0.00,,,-99.99,FreeWX-Wi 1.01,2013-07-17 05:25:00,
2013-07-17 00:30:00,77.4,63.7,28.97,SSW,194,5.0,5.8,63,0.00,,,-99.99,FreeWX-Wi 1.01,2013-07-17 05:30:00,
2013-07-17 00:35:00,77.2,63.5,28.97,SSW,194,5.0,6.3,63,0.00,,,-99.99,FreeWX-Wi 1.01,2013-07-17 05:35:00,
2013-07-17 00:40:00,77.0,63.9,28.97,SSW,194,5.0,5.8,64,0.00,,,-99.99,FreeWX-Wi 1.01,2013-07-17 05:40:00,
2013-07-17 00:45:00,76.8,63.7,28.97,SSW,194,5.0,6.3,64,0.00,,,-99.99,FreeWX-Wi 1.01,2013-07-17 05:45:00,
2013-07-17 00:50:00,76.6,64.4,28.97,SSW,196,5.0,5.8,66,0.00,,,-99.99,FreeWX-Wi 1.01,2013-07-17 05:50:00,
2013-07-17 00:55:00,76.3,64.6,28.97,SSW,198,5.0,6.3,67,0.00,,,-99.99,FreeWX-Wi 1.01,2013-07-17 05:55:00,
2013-07-17 01:00:00,76.3,64.6,28.97,SSW,198,5.0,5.8,67,0.00,,,-99.99,FreeWX-Wi 1.01,2013-07-17 06:00:00,
2013-07-17 01:05:00,76.5,64.2,28.97,SSW,198,5.0,5.0,66,0.00,,,-99.99,FreeWX-Wi 1.01,2013-07-17 06:05:00,
2013-07-17 01:10:00,76.3,64.6,28.97,SSW,199,5.0,5.4,67,0.00,,,-99.99,FreeWX-Wi 1.01,2013-07-17 06:10:00,
2013-07-17 01:15:00,76.3,64.6,28.97,SSW,199,5.0,5.4,67,0.00,,,-99.99,FreeWX-Wi 1.01,2013-07-17 06:15:00,
2013-07-17 01:20:00,76.1,64.4,29.00,SSW,199,5.0,5.4,67,0.00,,,-99.99,FreeWX-Wi 1.01,2013-07-17 06:20:00,
2013-07-17 01:25:00,76.1,64.4,29.00,SSW,199,5.0,5.8,67,0.00,,,-99.99,FreeWX-Wi 1.01,2013-07-17 06:25:00,
2013-07-17 01:30:00,75.9,64.6,29.00,SSW,199,5.0,5.4,68,0.00,,,-99.99,FreeWX-Wi 1.01,2013-07-17 06:30:00,
2013-07-17 01:35:00,75.7,64.4,29.00,SSW,199,5.0,5.8,68,0.00,,,-99.99,FreeWX-Wi 1.01,2013-07-17 06:35:00,
2013-07-17 01:40:00,75.6,64.6,29.00,SSW,200,5.0,5.4,69,0.00,,,-99.99,FreeWX-Wi 1.01,2013-07-17 06:40:00,
2013-07-17 01:45:00,75.4,64.4,29.00,SSW,200,5.0,5.8,69,0.00,,,-99.99,FreeWX-Wi 1.01,2013-07-17 06:45:00,
2013-07-17 01:50:00,75.2,64.8,28.97,SSW,201,4.0,5.8,70,0.00,,,-99.99,FreeWX-Wi 1.01,2013-07-17 06:50:00,
2013-07-17 01:55:00,75.2,64.8,28.97,SSW,201,4.0,5.4,70,0.00,,,-99.99,FreeWX-Wi 1.01,2013-07-17 06:55:00,
2013-07-17 02:00:00,75.0,65.3,28.97,SSW,202,4.0,4.5,72,0.00,,,-99.99,FreeWX-Wi 1.01,2013-07-17 07:00:00,
2013-07-17 02:05:00,74.8,65.1,28.97,SSW,203,4.0,5.4,72,0.00,,,-99.99,FreeWX-Wi 1.01,2013-07-17 07:05:00,
2013-07-17 02:10:00,74.8,65.1,28.97,SSW,203,4.0,4.9,72,0.00,,,-99.99,FreeWX-Wi 1.01,2013-07-17 07:10:00,
2013-07-17 02:15:00,74.7,64.9,28.97,SSW,203,4.0,5.4,72,0.00,,,-99.99,FreeWX-Wi 1.01,2013-07-17 07:15:00,
2013-07-17 02:20:00,74.7,64.9,28.97,SSW,204,4.0,4.9,72,0.00,,,-99.99,FreeWX-Wi 1.01,2013-07-17 07:20:00,
2013-07-17 02:25:00,74.7,65.5,28.97,SSW,202,4.0,4.9,73,0.00,,,-99.99,FreeWX-Wi 1.01,2013-07-17 07:25:00,
2013-07-17 02:30:00,74.7,65.5,28.97,SSW,201,4.0,5.4,73,0.00,,,-99.99,FreeWX-Wi 1.01,2013-07-17 07:30:00,
2013-07-17 02:35:00,74.7,65.5,29.00,SSW,199,4.0,4.9,73,0.00,,,-99.99,FreeWX-Wi 1.01,2013-07-17 07:35:00,
2013-07-17 02:40:00,74.5,65.3,29.00,SSW,197,4.0,4.9,73,0.00,,,-99.99,FreeWX-Wi 1.01,2013-07-17 07:40:00,
2013-07-17 02:45:00,74.5,65.7,29.00,SSW,197,4.0,4.9,74,0.00,,,-99.99,FreeWX-Wi 1.01,2013-07-17 07:45:00,
2013-07-17 02:50:00,74.3,65.5,29.00,SSW,197,4.0,4.9,74,0.00,,,-99.99,FreeWX-Wi 1.01,2013-07-17 07:50:00,
2013-07-17 02:55:00,74.1,65.3,29.00,SSW,197,4.0,4.9,74,0.00,,,-99.99,FreeWX-Wi 1.01,2013-07-17 07:55:00,
2013-07-17 03:00:00,74.1,65.7,29.00,SSW,199,4.0,5.4,75,0.00,,,-99.99,FreeWX-Wi 1.01,2013-07-17 08:00:00,
2013-07-17 03:05:00,73.9,65.8,29.00,SSW,201,4.0,4.9,76,0.00,,,-99.99,FreeWX-Wi 1.01,2013-07-17 08:05:00,
2013-07-17 03:10:00,73.8,65.7,29.00,SSW,204,4.0,4.9,76,0.00,,,-99.99,FreeWX-Wi 1.01,2013-07-17 08:10:00,
2013-07-17 03:15:00,73.8,65.7,29.00,SSW,207,3.0,3.6,76,0.00,,,-99.99,FreeWX-Wi 1.01,2013-07-17 08:15:00,
2013-07-17 03:20:00,73.6,65.5,29.00,SSW,210,3.0,3.0,76,0.00,,,-99.99,FreeWX-Wi 1.01,2013-07-17 08:20:00,
2013-07-17 03:25:00,73.6,65.5,29.00,SSW,213,2.0,4.0,76,0.00,,,-99.99,FreeWX-Wi 1.01,2013-07-17 08:25:00,
2013-07-17 03:30:00,73.4,65.7,29.00,SW,215,2.0,4.0,77,0.00,,,-99.99,FreeWX-Wi 1.01,2013-07-17 08:30:00,
2013-07-17 03:35:00,73.2,66.0,29.00,SW,216,2.0,4.5,78,0.00,,,-99.99,FreeWX-Wi 1.01,2013-07-17 08:35:00,
2013-07-17 03:40:00,73.2,66.0,29.00,SW,215,2.0,4.9,78,0.00,,,-99.99,FreeWX-Wi 1.01,2013-07-17 08:40:00,
2013-07-17 03:45:00,73.2,66.4,29.00,SW,216,2.0,4.9,79,0.00,,,-99.99,FreeWX-Wi 1.01,2013-07-17 08:45:00,
2013-07-17 03:50:00,73.2,66.0,29.00,SW,216,2.0,4.0,78,0.00,,,-99.99,FreeWX-Wi 1.01,2013-07-17 08:50:00,
2013-07-17 03:56:00,73.0,65.8,29.00,SW,215,3.0,4.0,78,0.00,,,-99.99,FreeWX-Wi 1.01,2013-07-17 08:56:00,
2013-07-17 04:01:00,73.0,65.8,29.00,SW,214,4.0,4.5,78,0.00,,,-99.99,FreeWX-Wi 1.01,2013-07-17 09:01:00,
2013-07-17 04:06:00,73.2,66.0,29.00,SSW,213,4.0,5.4,78,0.00,,,-99.99,FreeWX-Wi 1.01,2013-07-17 09:06:00,
2013-07-17 04:11:00,73.2,65.5,29.00,SSW,213,3.0,4.0,77,0.00,,,-99.99,FreeWX-Wi 1.01,2013-07-17 09:11:00,
2013-07-17 04:16:00,73.2,65.5,29.00,SSW,212,3.0,3.1,77,0.00,,,-99.99,FreeWX-Wi 1.01,2013-07-17 09:16:00,
2013-07-17 04:21:00,73.0,65.3,29.00,SSW,211,3.0,3.1,77,0.00,,,-99.99,FreeWX-Wi 1.01,2013-07-17 09:21:00,
2013-07-17 04:26:00,73.0,65.3,29.00,SSW,209,3.0,3.1,77,0.00,,,-99.99,FreeWX-Wi 1.01,2013-07-17 09:26:00,
2013-07-17 04:31:00,72.9,64.8,29.00,SSW,208,3.0,4.0,76,0.00,,,-99.99,FreeWX-Wi 1.01,2013-07-17 09:31:00,
2013-07-17 04:36:00,72.9,65.3,29.00,SSW,208,3.0,4.0,77,0.00,,,-99.99,FreeWX-Wi 1.01,2013-07-17 09:36:00,
2013-07-17 04:41:00,72.9,65.3,29.00,SSW,207,3.0,4.0,77,0.00,,,-99.99,FreeWX-Wi 1.01,2013-07-17 09:41:00,
2013-07-17 04:46:00,72.7,65.5,29.00,SSW,208,3.0,4.5,78,0.00,,,-99.99,FreeWX-Wi 1.01,2013-07-17 09:46:00,
2013-07-17 04:51:00,72.7,65.5,29.00,SSW,208,3.0,5.4,78,0.00,,,-99.99,FreeWX-Wi 1.01,2013-07-17 09:51:00,
2013-07-17 04:56:00,72.7,65.5,29.00,SSW,209,3.0,5.4,78,0.00,,,-99.99,FreeWX-Wi 1.01,2013-07-17 09:56:00,
2013-07-17 05:01:00,72.7,65.5,29.00,SSW,211,4.0,5.4,78,0.00,,,-99.99,FreeWX-Wi 1.01,2013-07-17 10:01:00,
2013-07-17 05:06:00,72.7,65.5,29.00,SSW,213,4.0,5.8,78,0.00,,,-99.99,FreeWX-Wi 1.01,2013-07-17 10:06:00,
2013-07-17 05:11:00,72.5,65.3,29.00,SW,215,4.0,4.9,78,0.00,,,-99.99,FreeWX-Wi 1.01,2013-07-17 10:11:00,
2013-07-17 05:16:00,72.5,65.3,29.00,SW,217,4.0,4.9,78,0.00,,,-99.99,FreeWX-Wi 1.01,2013-07-17 10:16:00,
2013-07-17 05:21:00,72.3,65.1,29.00,SW,217,4.0,4.9,78,0.00,,,-99.99,FreeWX-Wi 1.01,2013-07-17 10:21:00,
2013-07-17 05:26:00,72.3,65.1,29.00,SW,219,4.0,4.0,78,0.00,,,-99.99,FreeWX-Wi 1.01,2013-07-17 10:26:00,
2013-07-17 05:31:00,72.3,65.5,29.00,SW,221,4.0,4.0,79,0.00,,,-99.99,FreeWX-Wi 1.01,2013-07-17 10:31:00,
2013-07-17 05:36:00,72.1,65.3,29.00,SW,222,4.0,4.0,79,0.00,,,-99.99,FreeWX-Wi 1.01,2013-07-17 10:36:00,
2013-07-17 05:41:00,72.0,65.1,29.00,SW,220,4.0,4.0,79,0.00,,,-99.99,FreeWX-Wi 1.01,2013-07-17 10:41:00,
2013-07-17 05:46:00,72.1,65.7,29.00,SW,218,3.0,4.0,80,0.00,,,-99.99,FreeWX-Wi 1.01,2013-07-17 10:46:00,
2013-07-17 05:51:00,72.1,65.3,29.00,SW,215,3.0,3.6,79,0.00,,,-99.99,FreeWX-Wi 1.01,2013-07-17 10:51:00,
2013-07-17 05:56:00,72.1,65.3,29.00,SSW,213,3.0,3.1,79,0.00,,,-99.99,FreeWX-Wi 1.01,2013-07-17 10:56:00,
2013-07-17 06:01:00,72.5,65.7,29.00,SW,215,2.0,2.7,79,0.00,,,-99.99,FreeWX-Wi 1.01,2013-07-17 11:01:00,
2013-07-17 06:06:00,72.9,65.7,29.00,SW,219,2.0,0.0,78,0.00,,,-99.99,FreeWX-Wi 1.01,2013-07-17 11:06:00,
2013-07-17 06:11:00,73.8,64.9,29.00,SW,224,1.0,3.6,74,0.00,,,-99.99,FreeWX-Wi 1.01,2013-07-17 11:11:00,
2013-07-17 06:16:00,75.0,66.2,29.00,SW,228,1.0,4.0,74,0.00,,,-99.99,FreeWX-Wi 1.01,2013-07-17 11:16:00,
2013-07-17 06:21:00,76.3,65.8,29.00,North,-999,0.0,3.1,70,0.00,,,-99.99,FreeWX-Wi 1.01,2013-07-17 11:21:00,
2013-07-17 06:26:00,77.2,64.9,29.00,North,-999,0.0,0.0,66,0.00,,,-99.99,FreeWX-Wi 1.01,2013-07-17 11:26:00,
2013-07-17 06:31:00,78.1,64.9,29.00,North,-999,0.0,3.6,64,0.00,,,-99.99,FreeWX-Wi 1.01,2013-07-17 11:31:00,
2013-07-17 06:36:00,77.2,62.2,29.00,SW,229,1.0,4.0,60,0.00,,,-99.99,FreeWX-Wi 1.01,2013-07-17 11:36:00,
2013-07-17 06:41:00,76.3,62.8,29.00,SW,225,1.0,4.0,63,0.00,,,-99.99,FreeWX-Wi 1.01,2013-07-17 11:41:00,
2013-07-17 06:46:00,75.6,63.0,29.00,SW,223,2.0,4.9,65,0.00,,,-99.99,FreeWX-Wi 1.01,2013-07-17 11:46:00,
2013-07-17 06:51:00,75.6,63.9,29.00,SW,221,2.0,4.5,67,0.00,,,-99.99,FreeWX-Wi 1.01,2013-07-17 11:51:00,
2013-07-17 06:56:00,75.7,64.4,29.00,SW,220,3.0,4.0,68,0.00,,,-99.99,FreeWX-Wi 1.01,2013-07-17 11:56:00,
2013-07-17 07:01:00,75.9,64.6,29.00,SW,221,3.0,4.0,68,0.00,,,-99.99,FreeWX-Wi 1.01,2013-07-17 12:01:00,
2013-07-17 07:06:00,76.3,64.9,29.00,SW,222,3.0,4.0,68,0.00,,,-99.99,FreeWX-Wi 1.01,2013-07-17 12:06:00,
2013-07-17 07:11:00,76.5,65.1,29.00,SW,226,3.0,4.0,68,0.00,,,-99.99,FreeWX-Wi 1.01,2013-07-17 12:11:00,
2013-07-17 07:16:00,76.8,64.9,29.00,SW,227,3.0,4.0,67,0.00,,,-99.99,FreeWX-Wi 1.01,2013-07-17 12:16:00,
2013-07-17 07:21:00,77.2,64.9,29.00,SW,229,3.0,4.0,66,0.00,,,-99.99,FreeWX-Wi 1.01,2013-07-17 12:21:00,
2013-07-17 07:26:00,77.4,64.6,29.00,SW,230,3.0,4.5,65,0.00,,,-99.99,FreeWX-Wi 1.01,2013-07-17 12:26:00,
2013-07-17 07:31:00,77.7,64.0,29.00,SW,230,3.0,4.9,63,0.00,,,-99.99,FreeWX-Wi 1.01,2013-07-17 12:31:00,
2013-07-17 07:36:00,77.9,64.2,29.03,SW,231,3.0,4.5,63,0.00,,,-99.99,FreeWX-Wi 1.01,2013-07-17 12:36:00,
2013-07-17 07:41:00,78.4,63.9,29.03,SW,231,3.0,4.0,61,0.00,,,-99.99,FreeWX-Wi 1.01,2013-07-17 12:41:00,
2013-07-17 07:46:00,78.8,64.2,29.03,SW,231,3.0,5.4,61,0.00,,,-99.99,FreeWX-Wi 1.01,2013-07-17 12:46:00,
2013-07-17 07:51:00,79.0,63.9,29.03,SW,231,3.0,0.0,60,0.00,,,-99.99,FreeWX-Wi 1.01,2013-07-17 12:51:00,
2013-07-17 07:56:00,79.3,64.2,29.03,SW,231,3.0,4.9,60,0.00,,,-99.99,FreeWX-Wi 1.01,2013-07-17 12:56:00,
2013-07-17 08:01:00,79.9,64.2,29.03,SW,231,3.0,5.4,59,0.00,,,-99.99,FreeWX-Wi 1.01,2013-07-17 13:01:00,
2013-07-17 08:06:00,80.1,63.5,29.03,SW,231,3.0,5.4,57,0.00,,,-99.99,FreeWX-Wi 1.01,2013-07-17 13:06:00,
2013-07-17 08:11:00,81.1,64.4,29.03,SW,231,3.0,5.4,57,0.00,,,-99.99,FreeWX-Wi 1.01,2013-07-17 13:11:00,
2013-07-17 08:16:00,81.9,62.4,29.03,SW,231,3.0,5.8,52,0.00,,,-99.99,FreeWX-Wi 1.01,2013-07-17 13:16:00,
2013-07-17 08:21:00,81.1,60.6,29.03,SW,231,3.0,4.0,50,0.00,,,-99.99,FreeWX-Wi 1.01,2013-07-17 13:21:00,
2013-07-17 08:26:00,82.9,63.0,29.03,SW,231,3.0,4.0,51,0.00,,,-99.99,FreeWX-Wi 1.01,2013-07-17 13:26:00,
2013-07-17 08:31:00,84.2,60.4,29.03,SW,231,3.0,7.2,45,0.00,,,-99.99,FreeWX-Wi 1.01,2013-07-17 13:31:00,
2013-07-17 08:36:00,84.6,60.8,29.03,SW,232,3.0,5.8,45,0.00,,,-99.99,FreeWX-Wi 1.01,2013-07-17 13:36:00,
2013-07-17 08:41:00,84.2,60.4,29.03,SW,232,3.0,7.6,45,0.00,,,-99.99,FreeWX-Wi 1.01,2013-07-17 13:41:00,
2013-07-17 08:46:00,82.9,60.1,29.03,SW,233,3.0,5.4,46,0.00,,,-99.99,FreeWX-Wi 1.01,2013-07-17 13:46:00,
2013-07-17 08:51:00,82.9,61.2,29.03,SW,233,4.0,6.3,48,0.00,,,-99.99,FreeWX-Wi 1.01,2013-07-17 13:51:00,
2013-07-17 08:56:00,83.5,60.4,29.03,SW,233,4.0,5.4,46,0.00,,,-99.99,FreeWX-Wi 1.01,2013-07-17 13:56:00,
2013-07-17 09:01:00,84.4,61.3,29.03,SW,233,4.0,6.3,46,0.00,,,-99.99,FreeWX-Wi 1.01,2013-07-17 14:01:00,
2013-07-17 09:06:00,84.6,62.6,29.03,SW,233,4.0,7.6,48,0.00,,,-99.99,FreeWX-Wi 1.01,2013-07-17 14:06:00,
2013-07-17 09:11:00,84.2,61.7,29.03,SW,236,4.0,6.3,47,0.00,,,-99.99,FreeWX-Wi 1.01,2013-07-17 14:11:00,
2013-07-17 09:16:00,84.7,61.7,29.03,WSW,239,4.0,5.8,46,0.00,,,-99.99,FreeWX-Wi 1.01,2013-07-17 14:16:00,
2013-07-17 09:21:00,83.3,59.7,29.03,WSW,241,3.0,6.3,45,0.00,,,-99.99,FreeWX-Wi 1.01,2013-07-17 14:21:00,
2013-07-17 09:26:00,83.1,60.1,29.03,WSW,249,3.0,3.6,46,0.00,,,-99.99,FreeWX-Wi 1.01,2013-07-17 14:26:00,
2013-07-17 09:31:00,84.6,60.8,29.03,WSW,254,2.0,5.4,45,0.00,,,-99.99,FreeWX-Wi 1.01,2013-07-17 14:31:00,
2013-07-17 09:36:00,84.4,58.1,29.03,West,263,2.0,4.9,41,0.00,,,-99.99,FreeWX-Wi 1.01,2013-07-17 14:36:00,
2013-07-17 09:41:00,85.5,61.0,29.03,West,263,1.0,2.7,44,0.00,,,-99.99,FreeWX-Wi 1.01,2013-07-17 14:41:00,
2013-07-17 09:46:00,85.8,60.1,29.03,West,260,1.0,5.8,42,0.00,,,-99.99,FreeWX-Wi 1.01,2013-07-17 14:46:00,
2013-07-17 09:51:00,85.5,58.3,29.03,West,259,1.0,6.3,40,0.00,,,-99.99,FreeWX-Wi 1.01,2013-07-17 14:51:00,
2013-07-17 09:56:00,87.6,61.0,29.03,WSW,251,2.0,6.3,41,0.00,,,-99.99,FreeWX-Wi 1.01,2013-07-17 14:56:00,
2013-07-17 10:01:00,87.8,59.7,29.03,WSW,248,2.0,6.3,39,0.00,,,-99.99,FreeWX-Wi 1.01,2013-07-17 15:01:00,
2013-07-17 10:06:00,88.9,59.2,29.03,WSW,243,3.0,7.6,37,0.00,,,-99.99,FreeWX-Wi 1.01,2013-07-17 15:06:00,
2013-07-17 10:11:00,89.6,60.6,29.03,WSW,239,4.0,7.6,38,0.00,,,-99.99,FreeWX-Wi 1.01,2013-07-17 15:11:00,
2013-07-17 10:16:00,89.6,59.9,29.03,WSW,239,4.0,7.6,37,0.00,,,-99.99,FreeWX-Wi 1.01,2013-07-17 15:16:00,
2013-07-17 10:21:00,89.4,58.8,29.03,WSW,239,4.0,6.7,36,0.00,,,-99.99,FreeWX-Wi 1.01,2013-07-17 15:21:00,
2013-07-17 10:26:00,89.6,58.3,29.03,WSW,239,4.0,6.7,35,0.00,,,-99.99,FreeWX-Wi 1.01,2013-07-17 15:26:00,
2013-07-17 10:31:00,89.8,57.6,29.03,WSW,237,4.0,8.1,34,0.00,,,-99.99,FreeWX-Wi 1.01,2013-07-17 15:31:00,
2013-07-17 10:36:00,90.0,57.0,29.03,SW,234,4.0,7.6,33,0.00,,,-99.99,FreeWX-Wi 1.01,2013-07-17 15:36:00,
2013-07-17 10:41:00,90.1,57.9,29.03,SW,233,5.0,7.6,34,0.00,,,-99.99,FreeWX-Wi 1.01,2013-07-17 15:41:00,
2013-07-17 10:46:00,90.1,57.0,29.03,SW,235,4.0,5.8,33,0.00,,,-99.99,FreeWX-Wi 1.01,2013-07-17 15:46:00,
2013-07-17 10:51:00,89.1,60.1,29.03,SW,234,4.0,8.7,38,0.00,,,-99.99,FreeWX-Wi 1.01,2013-07-17 15:51:00,
2013-07-17 10:56:00,89.6,56.7,29.03,SW,234,4.0,8.3,33,0.00,,,-99.99,FreeWX-Wi 1.01,2013-07-17 15:56:00,
2013-07-17 11:01:00,89.1,60.1,29.03,SW,234,4.0,6.3,38,0.00,,,-99.99,FreeWX-Wi 1.01,2013-07-17 16:01:00,
2013-07-17 11:06:00,90.0,57.7,29.03,SW,236,4.0,8.3,34,0.00,,,-99.99,FreeWX-Wi 1.01,2013-07-17 16:06:00,
2013-07-17 11:11:00,90.7,57.6,29.03,SW,235,5.0,10.5,33,0.00,,,-99.99,FreeWX-Wi 1.01,2013-07-17 16:11:00,
2013-07-17 11:16:00,91.0,56.1,29.03,SW,232,5.0,8.7,31,0.00,,,-99.99,FreeWX-Wi 1.01,2013-07-17 16:16:00,
2013-07-17 11:21:00,91.0,57.0,29.03,SW,232,6.0,10.1,32,0.00,,,-99.99,FreeWX-Wi 1.01,2013-07-17 16:21:00,
2013-07-17 11:26:00,89.1,60.1,29.03,SW,235,5.0,7.6,38,0.00,,,-99.99,FreeWX-Wi 1.01,2013-07-17 16:26:00,
2013-07-17 11:31:00,90.0,58.6,29.03,SW,235,5.0,7.6,35,0.00,,,-99.99,FreeWX-Wi 1.01,2013-07-17 16:31:00,
2013-07-17 11:36:00,90.3,58.8,29.03,WSW,237,5.0,8.7,35,0.00,,,-99.99,FreeWX-Wi 1.01,2013-07-17 16:36:00,
2013-07-17 11:41:00,90.5,59.0,29.03,WSW,237,5.0,8.1,35,0.00,,,-99.99,FreeWX-Wi 1.01,2013-07-17 16:41:00,
2013-07-17 11:46:00,89.6,58.3,29.03,WSW,240,4.0,7.6,35,0.00,,,-99.99,FreeWX-Wi 1.01,2013-07-17 16:46:00,
2013-07-17 11:51:00,90.5,59.0,29.03,WSW,241,4.0,8.3,35,0.00,,,-99.99,FreeWX-Wi 1.01,2013-07-17 16:51:00,
2013-07-17 11:56:00,91.4,58.3,29.03,WSW,239,4.0,7.6,33,0.00,,,-99.99,FreeWX-Wi 1.01,2013-07-17 16:56:00,
2013-07-17 12:01:00,90.5,55.8,29.03,WSW,238,4.0,8.7,31,0.00,,,-99.99,FreeWX-Wi 1.01,2013-07-17 17:01:00,
2013-07-17 12:06:00,90.3,54.7,29.03,WSW,240,4.0,8.7,30,0.00,,,-99.99,FreeWX-Wi 1.01,2013-07-17 17:06:00,
2013-07-17 12:11:00,91.2,56.3,29.03,WSW,238,4.0,8.7,31,0.00,,,-99.99,FreeWX-Wi 1.01,2013-07-17 17:11:00,
2013-07-17 12:16:00,89.8,57.6,29.03,WSW,244,4.0,8.1,34,0.00,,,-99.99,FreeWX-Wi 1.01,2013-07-17 17:16:00,
2013-07-17 12:21:00,90.9,57.7,29.03,WSW,245,4.0,11.0,33,0.00,,,-99.99,FreeWX-Wi 1.01,2013-07-17 17:21:00,
2013-07-17 12:26:00,91.8,59.4,29.03,WSW,241,4.0,8.7,34,0.00,,,-99.99,FreeWX-Wi 1.01,2013-07-17 17:26:00,
2013-07-17 12:31:00,91.9,55.9,29.00,WSW,242,4.0,8.1,30,0.00,,,-99.99,FreeWX-Wi 1.01,2013-07-17 17:31:00,
2013-07-17 12:36:00,91.2,58.8,29.00,WSW,239,5.0,7.6,34,0.00,,,-99.99,FreeWX-Wi 1.01,2013-07-17 17:36:00,
2013-07-17 12:41:00,90.1,61.0,29.00,WSW,244,4.0,5.4,38,0.00,,,-99.99,FreeWX-Wi 1.01,2013-07-17 17:41:00,
2013-07-17 12:46:00,90.7,58.5,29.00,WSW,250,4.0,4.0,34,0.00,,,-99.99,FreeWX-Wi 1.01,2013-07-17 17:46:00,
2013-07-17 12:51:00,89.8,54.1,29.00,WSW,250,4.0,6.3,30,0.00,,,-99.99,FreeWX-Wi 1.01,2013-07-17 17:51:00,
2013-07-17 12:56:00,89.6,54.9,29.00,West,266,3.0,4.0,31,0.00,,,-99.99,FreeWX-Wi 1.01,2013-07-17 17:56:00,
2013-07-17 13:01:00,89.8,55.0,29.00,West,268,2.0,6.3,31,0.00,,,-99.99,FreeWX-Wi 1.01,2013-07-17 18:01:00,
2013-07-17 13:06:00,90.5,53.8,29.00,West,268,2.0,10.5,29,0.00,,,-99.99,FreeWX-Wi 1.01,2013-07-17 18:06:00,
2013-07-17 13:11:00,91.4,55.6,29.00,West,265,3.0,8.7,30,0.00,,,-99.99,FreeWX-Wi 1.01,2013-07-17 18:11:00,
2013-07-17 13:17:00,91.4,57.4,29.00,WSW,257,3.0,7.6,32,0.00,,,-99.99,FreeWX-Wi 1.01,2013-07-17 18:17:00,
2013-07-17 13:22:00,91.8,55.9,29.00,WSW,249,4.0,8.3,30,0.00,,,-99.99,FreeWX-Wi 1.01,2013-07-17 18:22:00,
2013-07-17 13:27:00,91.8,54.9,29.00,WSW,238,5.0,8.7,29,0.00,,,-99.99,FreeWX-Wi 1.01,2013-07-17 18:27:00,
2013-07-17 13:32:00,91.6,54.9,29.00,WSW,239,5.0,8.7,29,0.00,,,-99.99,FreeWX-Wi 1.01,2013-07-17 18:32:00,
2013-07-17 13:37:00,91.2,57.2,29.00,WSW,241,4.0,7.6,32,0.00,,,-99.99,FreeWX-Wi 1.01,2013-07-17 18:37:00,
2013-07-17 13:42:00,91.4,57.4,29.00,WSW,244,4.0,5.8,32,0.00,,,-99.99,FreeWX-Wi 1.01,2013-07-17 18:42:00,
2013-07-17 13:47:00,91.6,54.9,29.00,WSW,240,4.0,8.1,29,0.00,,,-99.99,FreeWX-Wi 1.01,2013-07-17 18:47:00,
2013-07-17 13:52:00,92.8,54.9,29.00,WSW,240,4.0,8.7,28,0.00,,,-99.99,FreeWX-Wi 1.01,2013-07-17 18:52:00,
2013-07-17 13:57:00,93.0,55.9,29.00,WSW,238,4.0,6.3,29,0.00,,,-99.99,FreeWX-Wi 1.01,2013-07-17 18:57:00,
2013-07-17 14:02:00,92.8,54.9,29.00,SW,233,4.0,8.7,28,0.00,,,-99.99,FreeWX-Wi 1.01,2013-07-17 19:02:00,
2013-07-17 14:07:00,93.0,54.0,29.00,SW,224,5.0,8.7,27,0.00,,,-99.99,FreeWX-Wi 1.01,2013-07-17 19:07:00,
2013-07-17 14:12:00,92.3,54.5,29.00,SW,223,5.0,10.5,28,0.00,,,-99.99,FreeWX-Wi 1.01,2013-07-17 19:12:00,
2013-07-17 14:17:00,92.8,54.9,28.97,SW,220,5.0,8.1,28,0.00,,,-99.99,FreeWX-Wi 1.01,2013-07-17 19:17:00,
2013-07-17 14:22:00,93.4,55.4,28.97,SW,219,5.0,8.7,28,0.00,,,-99.99,FreeWX-Wi 1.01,2013-07-17 19:22:00,
2013-07-17 14:27:00,93.4,54.3,28.97,SW,218,6.0,8.7,27,0.00,,,-99.99,FreeWX-Wi 1.01,2013-07-17 19:27:00,
2013-07-17 14:32:00,93.9,56.8,28.97,SW,219,6.0,9.2,29,0.00,,,-99.99,FreeWX-Wi 1.01,2013-07-17 19:32:00,
2013-07-17 14:37:00,93.7,56.7,28.97,SW,220,6.0,6.3,29,0.00,,,-99.99,FreeWX-Wi 1.01,2013-07-17 19:37:00,
2013-07-17 14:42:00,92.1,54.3,28.97,SW,223,5.0,6.3,28,0.00,,,-99.99,FreeWX-Wi 1.01,2013-07-17 19:42:00,
2013-07-17 14:47:00,92.3,58.1,28.97,SW,230,5.0,8.1,32,0.00,,,-99.99,FreeWX-Wi 1.01,2013-07-17 19:47:00,
2013-07-17 14:52:00,92.3,54.5,28.97,WSW,241,4.0,5.8,28,0.00,,,-99.99,FreeWX-Wi 1.01,2013-07-17 19:52:00,
2013-07-17 14:57:00,92.1,54.3,28.97,WSW,255,3.0,3.6,28,0.00,,,-99.99,FreeWX-Wi 1.01,2013-07-17 19:57:00,
2013-07-17 15:02:00,92.7,58.5,28.97,West,269,2.0,3.6,32,0.00,,,-99.99,FreeWX-Wi 1.01,2013-07-17 20:02:00,
2013-07-17 15:07:00,93.0,57.0,28.97,West,277,2.0,3.1,30,0.00,,,-99.99,FreeWX-Wi 1.01,2013-07-17 20:07:00,
2013-07-17 15:12:00,93.0,55.0,28.97,West,276,2.0,6.3,28,0.00,,,-99.99,FreeWX-Wi 1.01,2013-07-17 20:12:00,
2013-07-17 15:17:00,91.0,55.2,28.97,West,275,2.0,5.8,30,0.00,,,-99.99,FreeWX-Wi 1.01,2013-07-17 20:17:00,
2013-07-17 15:22:00,91.8,56.8,28.97,West,275,2.0,4.0,31,0.00,,,-99.99,FreeWX-Wi 1.01,2013-07-17 20:22:00,
2013-07-17 15:27:00,91.8,57.7,28.97,West,274,1.0,2.2,32,0.00,,,-99.99,FreeWX-Wi 1.01,2013-07-17 20:27:00,
2013-07-17 15:32:00,92.7,58.5,28.97,West,266,1.0,4.0,32,0.00,,,-99.99,FreeWX-Wi 1.01,2013-07-17 20:32:00,
2013-07-17 15:37:00,91.8,56.8,28.97,West,262,1.0,5.8,31,0.00,,,-99.99,FreeWX-Wi 1.01,2013-07-17 20:37:00,
2013-07-17 15:42:00,92.8,54.9,28.97,WSW,254,2.0,8.7,28,0.00,,,-99.99,FreeWX-Wi 1.01,2013-07-17 20:42:00,
2013-07-17 15:47:00,93.9,55.8,28.97,WSW,244,3.0,10.1,28,0.00,,,-99.99,FreeWX-Wi 1.01,2013-07-17 20:47:00,
2013-07-17 15:52:00,94.5,55.2,28.97,SW,234,4.0,11.4,27,0.00,,,-99.99,FreeWX-Wi 1.01,2013-07-17 20:52:00,
2013-07-17 15:57:00,94.8,55.6,28.97,SW,224,4.0,8.3,27,0.00,,,-99.99,FreeWX-Wi 1.01,2013-07-17 20:57:00,
2013-07-17 16:02:00,95.0,54.7,28.97,SW,220,5.0,6.3,26,0.00,,,-99.99,FreeWX-Wi 1.01,2013-07-17 21:02:00,
2013-07-17 16:07:00,95.0,54.7,28.97,SSW,212,5.0,6.3,26,0.00,,,-99.99,FreeWX-Wi 1.01,2013-07-17 21:07:00,
2013-07-17 16:12:00,94.5,55.2,28.97,SW,221,5.0,8.3,27,0.00,,,-99.99,FreeWX-Wi 1.01,2013-07-17 21:12:00,
2013-07-17 16:17:00,93.6,54.5,28.97,SW,224,5.0,8.7,27,0.00,,,-99.99,FreeWX-Wi 1.01,2013-07-17 21:17:00,
2013-07-17 16:22:00,94.3,55.0,28.97,SW,220,5.0,8.7,27,0.00,,,-99.99,FreeWX-Wi 1.01,2013-07-17 21:22:00,
2013-07-17 16:27:00,94.5,54.1,28.97,SW,216,5.0,10.5,26,0.00,,,-99.99,FreeWX-Wi 1.01,2013-07-17 21:27:00,
2013-07-17 16:32:00,94.1,54.0,28.94,SSW,212,6.0,10.5,26,0.00,,,-99.99,FreeWX-Wi 1.01,2013-07-17 21:32:00,
2013-07-17 16:37:00,94.3,55.0,28.94,SSW,213,6.0,8.3,27,0.00,,,-99.99,FreeWX-Wi 1.01,2013-07-17 21:37:00,
2013-07-17 16:42:00,94.1,54.0,28.94,SSW,205,7.0,11.0,26,0.00,,,-99.99,FreeWX-Wi 1.01,2013-07-17 21:42:00,
2013-07-17 16:47:00,94.3,55.0,28.94,SSW,202,7.0,8.7,27,0.00,,,-99.99,FreeWX-Wi 1.01,2013-07-17 21:47:00,
2013-07-17 16:52:00,94.6,53.2,28.94,SSW,204,7.0,10.1,25,0.00,,,-99.99,FreeWX-Wi 1.01,2013-07-17 21:52:00,
2013-07-17 16:57:00,94.5,55.2,28.94,SSW,203,6.0,10.5,27,0.00,,,-99.99,FreeWX-Wi 1.01,2013-07-17 21:57:00,
2013-07-17 17:02:00,94.3,53.1,28.94,SSW,203,6.0,9.6,25,0.00,,,-99.99,FreeWX-Wi 1.01,2013-07-17 22:02:00,
2013-07-17 17:07:00,94.1,55.0,28.94,SSW,204,6.0,6.3,27,0.00,,,-99.99,FreeWX-Wi 1.01,2013-07-17 22:07:00,
2013-07-17 17:12:00,94.1,55.0,28.94,SSW,206,6.0,9.2,27,0.00,,,-99.99,FreeWX-Wi 1.01,2013-07-17 22:12:00,
2013-07-17 17:17:00,93.9,52.7,28.94,SSW,206,6.0,11.9,25,0.00,,,-99.99,FreeWX-Wi 1.01,2013-07-17 22:17:00,
2013-07-17 17:22:00,94.1,52.9,28.94,SSW,209,6.0,8.3,25,0.00,,,-99.99,FreeWX-Wi 1.01,2013-07-17 22:22:00,
2013-07-17 17:27:00,94.1,54.0,28.94,SSW,208,6.0,11.0,26,0.00,,,-99.99,FreeWX-Wi 1.01,2013-07-17 22:27:00,
2013-07-17 17:32:00,94.1,51.8,28.94,SSW,205,6.0,10.1,24,0.00,,,-99.99,FreeWX-Wi 1.01,2013-07-17 22:32:00,
2013-07-17 17:37:00,93.7,54.7,28.94,SSW,205,7.0,10.1,27,0.00,,,-99.99,FreeWX-Wi 1.01,2013-07-17 22:37:00,
2013-07-17 17:42:00,93.4,55.4,28.94,SSW,206,7.0,10.5,28,0.00,,,-99.99,FreeWX-Wi 1.01,2013-07-17 22:42:00,
2013-07-17 17:47:00,93.4,54.3,28.94,SSW,210,7.0,10.1,27,0.00,,,-99.99,FreeWX-Wi 1.01,2013-07-17 22:47:00,
2013-07-17 17:52:00,93.9,53.8,28.94,SSW,210,8.0,8.7,26,0.00,,,-99.99,FreeWX-Wi 1.01,2013-07-17 22:52:00,
2013-07-17 17:57:00,94.8,53.4,28.94,SSW,211,8.0,8.7,25,0.00,,,-99.99,FreeWX-Wi 1.01,2013-07-17 22:57:00,
2013-07-17 18:02:00,95.7,52.0,28.94,SW,215,7.0,8.3,23,0.00,,,-99.99,FreeWX-Wi 1.01,2013-07-17 23:02:00,
2013-07-17 18:07:00,95.4,55.0,28.94,SW,216,7.0,8.7,26,0.00,,,-99.99,FreeWX-Wi 1.01,2013-07-17 23:07:00,
2013-07-17 18:12:00,95.4,54.0,28.94,SW,214,7.0,8.7,25,0.00,,,-99.99,FreeWX-Wi 1.01,2013-07-17 23:12:00,
2013-07-17 18:17:00,96.4,53.8,28.94,SSW,213,6.0,8.1,24,0.00,,,-99.99,FreeWX-Wi 1.01,2013-07-17 23:17:00,
2013-07-17 18:22:00,97.2,52.0,28.94,SSW,212,7.0,11.0,22,0.00,,,-99.99,FreeWX-Wi 1.01,2013-07-17 23:22:00,
2013-07-17 18:27:00,97.5,53.4,28.94,SSW,212,7.0,9.6,23,0.00,,,-99.99,FreeWX-Wi 1.01,2013-07-17 23:27:00,
2013-07-17 18:32:00,97.9,52.5,28.94,SSW,211,7.0,8.1,22,0.00,,,-99.99,FreeWX-Wi 1.01,2013-07-17 23:32:00,
2013-07-17 18:37:00,98.1,51.4,28.94,SSW,209,6.0,8.3,21,0.00,,,-99.99,FreeWX-Wi 1.01,2013-07-17 23:37:00,
2013-07-17 18:42:00,98.6,49.1,28.94,SSW,208,7.0,8.3,19,0.00,,,-99.99,FreeWX-Wi 1.01,2013-07-17 23:42:00,
2013-07-17 18:47:00,98.2,51.6,28.94,SSW,209,6.0,8.1,21,0.00,,,-99.99,FreeWX-Wi 1.01,2013-07-17 23:47:00,
2013-07-17 18:52:00,97.7,51.1,28.94,SSW,209,6.0,8.7,21,0.00,,,-99.99,FreeWX-Wi 1.01,2013-07-17 23:52:00,
2013-07-17 18:57:00,97.5,52.2,28.94,SSW,208,6.0,7.6,22,0.00,,,-99.99,FreeWX-Wi 1.01,2013-07-17 23:57:00,
2013-07-17 19:02:00,96.8,50.4,28.91,SSW,208,6.0,0.0,21,0.00,,,-99.99,FreeWX-Wi 1.01,2013-07-18 00:02:00,
2013-07-17 19:07:00,96.6,51.4,28.91,SSW,206,6.0,8.7,22,0.00,,,-99.99,FreeWX-Wi 1.01,2013-07-18 00:07:00,
2013-07-17 19:12:00,96.8,52.9,28.91,SSW,205,6.0,8.3,23,0.00,,,-99.99,FreeWX-Wi 1.01,2013-07-18 00:12:00,
2013-07-17 19:17:00,96.8,52.9,28.91,SSW,204,6.0,8.7,23,0.00,,,-99.99,FreeWX-Wi 1.01,2013-07-18 00:17:00,
2013-07-17 19:22:00,95.4,54.0,28.91,SSW,200,6.0,10.1,25,0.00,,,-99.99,FreeWX-Wi 1.01,2013-07-18 00:22:00,
2013-07-17 19:27:00,93.0,54.0,28.91,SSW,196,6.0,8.7,27,0.00,,,-99.99,FreeWX-Wi 1.01,2013-07-18 00:27:00,
2013-07-17 19:32:00,91.2,54.5,28.91,SSW,195,7.0,11.4,29,0.00,,,-99.99,FreeWX-Wi 1.01,2013-07-18 00:32:00,
2013-07-17 19:37:00,90.0,55.2,28.91,SSW,194,7.0,11.0,31,0.00,,,-99.99,FreeWX-Wi 1.01,2013-07-18 00:37:00,
2013-07-17 19:42:00,89.2,56.3,28.91,SSW,194,7.0,8.3,33,0.00,,,-99.99,FreeWX-Wi 1.01,2013-07-18 00:42:00,
2013-07-17 19:47:00,88.5,55.8,28.91,SSW,194,7.0,10.1,33,0.00,,,-99.99,FreeWX-Wi 1.01,2013-07-18 00:47:00,
2013-07-17 19:52:00,88.0,56.8,28.91,SSW,193,7.0,8.7,35,0.00,,,-99.99,FreeWX-Wi 1.01,2013-07-18 00:52:00,
2013-07-17 19:57:00,87.4,57.2,28.91,South,191,7.0,8.7,36,0.00,,,-99.99,FreeWX-Wi 1.01,2013-07-18 00:57:00,
2013-07-17 20:02:00,87.1,56.8,28.91,South,190,7.0,8.7,36,0.00,,,-99.99,FreeWX-Wi 1.01,2013-07-18 01:02:00,
2013-07-17 20:07:00,86.7,57.4,28.91,South,189,7.0,9.2,37,0.00,,,-99.99,FreeWX-Wi 1.01,2013-07-18 01:07:00,
2013-07-17 20:12:00,86.2,57.6,28.91,South,188,7.0,7.6,38,0.00,,,-99.99,FreeWX-Wi 1.01,2013-07-18 01:12:00,
2013-07-17 20:17:00,85.8,57.9,28.91,South,188,7.0,7.6,39,0.00,,,-99.99,FreeWX-Wi 1.01,2013-07-18 01:17:00,
2013-07-17 20:22:00,85.5,57.6,28.91,South,189,6.0,8.7,39,0.00,,,-99.99,FreeWX-Wi 1.01,2013-07-18 01:22:00,
2013-07-17 20:27:00,84.9,58.6,28.91,South,190,6.0,10.1,41,0.00,,,-99.99,FreeWX-Wi 1.01,2013-07-18 01:27:00,
2013-07-17 20:32:00,84.6,58.3,28.91,SSW,193,7.0,12.8,41,0.00,,,-99.99,FreeWX-Wi 1.01,2013-07-18 01:32:00,
2013-07-17 20:37:00,84.4,57.4,28.91,SSW,195,7.0,11.0,40,0.00,,,-99.99,FreeWX-Wi 1.01,2013-07-18 01:37:00,
2013-07-17 20:42:00,84.0,57.0,28.91,SSW,195,8.0,10.1,40,0.00,,,-99.99,FreeWX-Wi 1.01,2013-07-18 01:42:00,
2013-07-17 20:47:00,83.8,56.8,28.91,SSW,195,8.0,10.1,40,0.00,,,-99.99,FreeWX-Wi 1.01,2013-07-18 01:47:00,
2013-07-17 20:52:00,83.3,56.5,28.91,SSW,194,8.0,8.7,40,0.00,,,-99.99,FreeWX-Wi 1.01,2013-07-18 01:52:00,
2013-07-17 20:57:00,82.9,56.8,28.91,South,191,8.0,10.1,41,0.00,,,-99.99,FreeWX-Wi 1.01,2013-07-18 01:57:00,
2013-07-17 21:02:00,82.6,56.5,28.91,South,188,8.0,10.5,41,0.00,,,-99.99,FreeWX-Wi 1.01,2013-07-18 02:02:00,
2013-07-17 21:07:00,82.2,56.8,28.91,South,185,7.0,7.0,42,0.00,,,-99.99,FreeWX-Wi 1.01,2013-07-18 02:07:00,
2013-07-17 21:12:00,82.0,57.4,28.91,South,184,7.0,7.0,43,0.00,,,-99.99,FreeWX-Wi 1.01,2013-07-18 02:12:00,
2013-07-17 21:17:00,81.9,57.7,28.91,South,184,7.0,7.2,44,0.00,,,-99.99,FreeWX-Wi 1.01,2013-07-18 02:17:00,
2013-07-17 21:22:00,81.5,57.4,28.91,South,185,6.0,8.1,44,0.00,,,-99.99,FreeWX-Wi 1.01,2013-07-18 02:22:00,
2013-07-17 21:27:00,81.3,57.9,28.91,South,185,6.0,8.1,45,0.00,,,-99.99,FreeWX-Wi 1.01,2013-07-18 02:27:00,
2013-07-17 21:32:00,81.1,58.3,28.91,South,185,6.0,6.3,46,0.00,,,-99.99,FreeWX-Wi 1.01,2013-07-18 02:32:00,
2013-07-17 21:37:00,81.1,58.3,28.91,South,188,6.0,6.0,46,0.00,,,-99.99,FreeWX-Wi 1.01,2013-07-18 02:37:00,
2013-07-17 21:42:00,81.1,57.2,28.91,South,189,5.0,5.4,44,0.00,,,-99.99,FreeWX-Wi 1.01,2013-07-18 02:42:00,
2013-07-17 21:47:00,81.0,57.6,28.91,South,187,5.0,5.0,45,0.00,,,-99.99,FreeWX-Wi 1.01,2013-07-18 02:47:00,
2013-07-17 21:52:00,80.8,58.1,28.91,South,189,5.0,5.0,46,0.00,,,-99.99,FreeWX-Wi 1.01,2013-07-18 02:52:00,
2013-07-17 21:57:00,80.6,57.9,28.91,South,190,5.0,5.4,46,0.00,,,-99.99,FreeWX-Wi 1.01,2013-07-18 02:57:00,
2013-07-17 22:02:00,80.4,57.7,28.91,South,188,5.0,5.8,46,0.00,,,-99.99,FreeWX-Wi 1.01,2013-07-18 03:02:00,
2013-07-17 22:07:00,80.2,57.6,28.91,South,187,4.0,5.4,46,0.00,,,-99.99,FreeWX-Wi 1.01,2013-07-18 03:07:00,
2013-07-17 22:12:00,80.2,58.1,28.91,South,187,4.0,0.0,47,0.00,,,-99.99,FreeWX-Wi 1.01,2013-07-18 03:12:00,
2013-07-17 22:17:00,80.1,58.6,28.91,South,187,4.0,0.0,48,0.00,,,-99.99,FreeWX-Wi 1.01,2013-07-18 03:17:00,
2013-07-17 22:22:00,79.7,58.8,28.91,South,187,4.0,0.0,49,0.00,,,-99.99,FreeWX-Wi 1.01,2013-07-18 03:22:00,
2013-07-17 22:27:00,79.7,58.3,28.91,South,187,4.0,0.0,48,0.00,,,-99.99,FreeWX-Wi 1.01,2013-07-18 03:27:00,
2013-07-17 22:32:00,79.5,58.1,28.91,South,187,4.0,4.0,48,0.00,,,-99.99,FreeWX-Wi 1.01,2013-07-18 03:32:00,
2013-07-17 22:37:00,79.5,58.6,28.91,South,188,4.0,4.5,49,0.00,,,-99.99,FreeWX-Wi 1.01,2013-07-18 03:37:00,
2013-07-17 22:42:00,79.3,58.5,28.91,South,187,4.0,4.0,49,0.00,,,-99.99,FreeWX-Wi 1.01,2013-07-18 03:42:00,
2013-07-17 22:47:00,79.3,58.5,28.91,South,185,4.0,4.5,49,0.00,,,-99.99,FreeWX-Wi 1.01,2013-07-18 03:47:00,
2013-07-17 22:52:00,79.3,58.5,28.91,South,185,4.0,4.5,49,0.00,,,-99.99,FreeWX-Wi 1.01,2013-07-18 03:52:00,
2013-07-17 22:57:00,79.3,58.5,28.91,South,185,4.0,5.4,49,0.00,,,-99.99,FreeWX-Wi 1.01,2013-07-18 03:57:00,
2013-07-17 23:02:00,79.3,58.5,28.91,South,185,4.0,5.8,49,0.00,,,-99.99,FreeWX-Wi 1.01,2013-07-18 04:02:00,
2013-07-17 23:07:00,79.3,58.5,28.91,South,186,4.0,5.8,49,0.00,,,-99.99,FreeWX-Wi 1.01,2013-07-18 04:07:00,
2013-07-17 23:12:00,79.2,58.8,28.91,South,186,4.0,4.0,50,0.00,,,-99.99,FreeWX-Wi 1.01,2013-07-18 04:12:00,
2013-07-17 23:17:00,79.0,58.1,28.91,South,185,4.0,4.9,49,0.00,,,-99.99,FreeWX-Wi 1.01,2013-07-18 04:17:00,
2013-07-17 23:22:00,79.0,58.6,28.91,South,185,4.0,4.9,50,0.00,,,-99.99,FreeWX-Wi 1.01,2013-07-18 04:22:00,
2013-07-17 23:27:00,78.8,59.2,28.91,South,185,4.0,5.4,51,0.00,,,-99.99,FreeWX-Wi 1.01,2013-07-18 04:27:00,
2013-07-17 23:32:00,78.6,59.5,28.88,South,185,4.0,5.4,52,0.00,,,-99.99,FreeWX-Wi 1.01,2013-07-18 04:32:00,
2013-07-17 23:37:00,78.4,59.4,28.88,South,185,4.0,5.8,52,0.00,,,-99.99,FreeWX-Wi 1.01,2013-07-18 04:37:00,
2013-07-17 23:42:00,78.4,59.4,28.88,South,185,4.0,4.9,52,0.00,,,-99.99,FreeWX-Wi 1.01,2013-07-18 04:42:00,
2013-07-17 23:47:00,78.3,59.2,28.88,South,184,4.0,4.5,52,0.00,,,-99.99,FreeWX-Wi 1.01,2013-07-18 04:47:00,
2013-07-17 23:52:00,78.3,59.7,28.88,South,183,4.0,5.8,53,0.00,,,-99.99,FreeWX-Wi 1.01,2013-07-18 04:52:00,
2013-07-17 23:57:00,78.1,59.5,28.88,South,183,4.0,6.3,53,0.00,,,-99.99,FreeWX-Wi 1.01,2013-07-18 04:57:00,